sat.trackr.live / text

‹ back to catalog

STARLINK-11079 [DTC]

NORAD 58708 · 2024-002D

PAYLOAD ACTIVE UNKNOWN

§ Identity

Operator
Country
US
Launch date
2024-01-03
Launch site
AFWTR
Launch vehicle
Mass (kg)
RCS (m²)

Purposes: comms

External: N2YO · Heavens-Above · Gunter

§ Orbital elements

Epoch: 2026-05-24T19:25:32.545344Z

Period
91.74 min
Inclination
53.1593°
Eccentricity
0.0000740
Mean motion
15.69714118 rev/d
Perigee alt
359.2 km
Apogee alt
360.2 km
Semi-major
6,737.9 km
B*
-6.8908e-6
RAAN
258.7121°
Arg perigee
74.2793°
Mean anomaly
285.8306°
Rev number
13,839

§ Raw data

STARLINK-11079 [DTC]1 58708U 24002D   26144.80940446 -.00001423  00000+0 -68908-5 0  99952 58708  53.1593 258.7121 0000740  74.2793 285.8306 15.69714118138394

JSON: /api/v1/satellites/58708 · /tle

For live sub-satellite position, see the globe view (requires WebGL).

§ Visibility from observer

Set your observer location to see the next 7 days of passes ≥ 10°. The values pass through the URL so the page stays shareable.

No JS? Fill the form by hand. The geolocation button needs JavaScript.